�������l�o���
Date,Time,MP-1(��Sv/h),MP-2(��Sv/h),MP-3(��Sv/h),MP-4(��Sv/h),MP-5(��Sv/h),MP-6(��Sv/h),MP-7(��Sv/h),MP-8(��Sv/h),����,����(m/s),���J
2017/12/29,00:00,0.893,1.490,0.935,1.769,1.191,0.493,0.879,0.844,��,1.5,��
2017/12/29,00:10,0.893,1.489,0.935,1.768,1.193,0.492,0.880,0.845,���쓌,1.7,��
2017/12/29,00:20,0.893,1.488,0.933,1.768,1.191,0.492,0.881,0.845,��,0.9,��
2017/12/29,00:30,0.892,1.486,0.935,1.772,1.192,0.493,0.879,0.845,��,2.3,��
2017/12/29,00:40,0.890,1.489,0.935,1.771,1.191,0.492,0.878,0.846,��쐼,2.8,��
2017/12/29,00:50,0.893,1.491,0.934,1.772,1.189,0.492,0.879,0.844,�쐼,3.1,��
2017/12/29,01:00,0.892,1.485,0.934,1.771,1.193,0.493,0.879,0.843,��,2.6,��
2017/12/29,01:10,0.893,1.489,0.936,1.771,1.191,0.492,0.879,0.845,���쐼,2.0,��
2017/12/29,01:20,0.893,1.488,0.933,1.769,1.190,0.492,0.881,0.845,��,2.0,��
2017/12/29,01:30,0.892,1.490,0.936,1.770,1.191,0.493,0.880,0.844,�k��,3.1,��
2017/12/29,01:40,0.895,1.490,0.936,1.770,1.190,0.494,0.880,0.845,�k��,4.5,��
2017/12/29,01:50,0.893,1.487,0.934,1.771,1.190,0.492,0.881,0.846,�k�k��,3.2,��
2017/12/29,02:00,0.893,1.488,0.933,1.768,1.191,0.492,0.880,0.846,�k�k��,4.0,��
2017/12/29,02:10,0.892,1.487,0.934,1.772,1.191,0.493,0.879,0.847,�k,2.9,��
2017/12/29,02:20,0.890,1.489,0.934,1.770,1.191,0.491,0.881,0.844,�k�k��,3.1,��
2017/12/29,02:30,0.894,1.489,0.934,1.768,1.189,0.493,0.881,0.846,�k�k��,2.8,��
2017/12/29,02:40,0.891,1.487,0.935,1.767,1.190,0.492,0.879,0.845,�k,0.9,��
2017/12/29,02:50,0.891,1.487,0.935,1.771,1.189,0.492,0.881,0.846,�k,1.5,��
2017/12/29,03:00,0.892,1.487,0.933,1.772,1.191,0.491,0.879,0.845,�k��,3.3,��
2017/12/29,03:10,0.894,1.488,0.933,1.766,1.190,0.492,0.880,0.844,�k�k��,2.9,��
2017/12/29,03:20,0.893,1.489,0.934,1.771,1.189,0.492,0.881,0.845,�k�k��,2.2,��
2017/12/29,03:30,0.892,1.488,0.935,1.769,1.189,0.492,0.882,0.845,�k�k��,1.2,��
2017/12/29,03:40,0.891,1.487,0.935,1.771,1.189,0.492,0.882,0.845,�k�k��,2.3,��
2017/12/29,03:50,0.892,1.489,0.934,1.767,1.189,0.493,0.880,0.845,�k,2.0,��
2017/12/29,04:00,0.891,1.489,0.934,1.769,1.190,0.491,0.881,0.844,���k��,1.2,��
2017/12/29,04:10,0.894,1.489,0.931,1.770,1.190,0.491,0.879,0.843,��,2.3,��
2017/12/29,04:20,0.893,1.488,0.935,1.768,1.191,0.493,0.879,0.846,�k,2.6,��
2017/12/29,04:30,0.891,1.485,0.933,1.766,1.191,0.493,0.880,0.845,��,0.9,��
2017/12/29,04:40,0.892,1.488,0.936,1.768,1.187,0.492,0.879,0.845,��,1.2,��
2017/12/29,04:50,0.892,1.489,0.936,1.768,1.190,0.493,0.879,0.844,-,CALM,��
2017/12/29,05:00,0.893,1.486,0.934,1.768,1.188,0.493,0.879,0.847,�k��,2.2,��
2017/12/29,05:10,0.893,1.486,0.934,1.769,1.188,0.491,0.878,0.844,�k��,3.1,��
2017/12/29,05:20,0.893,1.488,0.934,1.766,1.188,0.492,0.879,0.846,�k��,1.2,��
2017/12/29,05:30,0.893,1.486,0.933,1.765,1.192,0.492,0.880,0.845,�k�k��,0.9,��
2017/12/29,05:40,0.891,1.488,0.934,1.768,1.187,0.492,0.881,0.845,�k,0.9,��
2017/12/29,05:50,0.893,1.488,0.934,1.769,1.188,0.490,0.878,0.844,�k��,2.2,��
2017/12/29,06:00,0.893,1.486,0.933,1.768,1.187,0.492,0.879,0.845,�k�k��,2.0,��
2017/12/29,06:10,0.892,1.486,0.933,1.766,1.188,0.493,0.879,0.844,�k�k��,2.6,��
2017/12/29,06:20,0.890,1.485,0.931,1.767,1.187,0.491,0.879,0.845,�k��,1.7,��
2017/12/29,06:30,0.892,1.487,0.932,1.770,1.187,0.493,0.878,0.842,�k��,2.2,��
2017/12/29,06:40,0.890,1.486,0.933,1.767,1.187,0.491,0.879,0.844,���k��,1.5,��
2017/12/29,06:50,0.891,1.483,0.934,1.768,1.187,0.492,0.879,0.844,��,1.7,��
2017/12/29,07:00,0.891,1.489,0.933,1.767,1.186,0.493,0.878,0.844,��,2.3,��
2017/12/29,07:10,0.889,1.487,0.931,1.768,1.187,0.491,0.877,0.841,���쐼,3.1,��
2017/12/29,07:20,0.891,1.488,0.933,1.769,1.187,0.490,0.879,0.844,��,4.9,��
2017/12/29,07:30,0.893,1.486,0.933,1.767,1.189,0.492,0.879,0.845,��,5.6,��
2017/12/29,07:40,0.890,1.486,0.933,1.769,1.187,0.491,0.880,0.845,��,4.2,��
2017/12/29,07:50,0.892,1.487,0.933,1.769,1.189,0.493,0.880,0.845,��,4.2,��
2017/12/29,08:00,0.892,1.487,0.934,1.767,1.189,0.493,0.879,0.844,��,3.8,��
2017/12/29,08:10,0.893,1.486,0.935,1.768,1.188,0.491,0.880,0.845,��,3.9,��
2017/12/29,08:20,0.892,1.489,0.935,1.768,1.190,0.492,0.880,0.842,���쐼,2.5,��
2017/12/29,08:30,0.892,1.488,0.934,1.769,1.188,0.492,0.881,0.846,��,3.7,��
2017/12/29,08:40,0.894,1.489,0.934,1.767,1.189,0.493,0.879,0.844,���k��,2.5,��
2017/12/29,08:50,0.893,1.488,0.935,1.770,1.192,0.493,0.882,0.845,��,2.0,��
2017/12/29,09:00,0.893,1.489,0.936,1.768,1.188,0.493,0.881,0.844,�k��,1.5,��
2017/12/29,09:10,0.895,1.488,0.935,1.772,1.189,0.491,0.880,0.844,�k�k��,0.9,��
2017/12/29,09:20,0.895,1.490,0.936,1.769,1.190,0.492,0.881,0.844,��,0.9,��
2017/12/29,09:30,0.893,1.489,0.935,1.772,1.192,0.492,0.883,0.843,�k��,0.8,��
2017/12/29,09:40,0.895,1.490,0.935,1.772,1.190,0.493,0.882,0.845,�k�k��,2.3,��
2017/12/29,09:50,0.894,1.490,0.937,1.772,1.190,0.492,0.883,0.846,�k��,2.8,��
2017/12/29,10:00,0.894,1.488,0.936,1.771,1.191,0.491,0.881,0.845,���k��,3.8,��
2017/12/29,10:10,0.894,1.487,0.937,1.771,1.188,0.493,0.880,0.845,�k��,4.0,��
2017/12/29,10:20,0.893,1.488,0.935,1.773,1.190,0.493,0.880,0.845,�k�k��,3.6,��
2017/12/29,10:30,0.894,1.487,0.937,1.772,1.191,0.492,0.879,0.846,�k,3.8,��
2017/12/29,10:40,0.895,1.488,0.933,1.772,1.190,0.492,0.881,0.845,�k�k��,2.5,��
2017/12/29,10:50,0.895,1.488,0.936,1.770,1.193,0.492,0.878,0.849,�k��,2.6,��
2017/12/29,11:00,0.895,1.489,0.936,1.771,1.194,0.493,0.879,0.846,�k��,2.8,��
2017/12/29,11:10,0.895,1.489,0.935,1.771,1.193,0.493,0.883,0.847,���k��,2.3,��
2017/12/29,11:20,0.896,1.488,0.936,1.772,1.193,0.493,0.881,0.846,���쓌,3.0,��
2017/12/29,11:30,0.895,1.489,0.938,1.773,1.194,0.493,0.881,0.847,���쓌,2.0,��
2017/12/29,11:40,0.896,1.487,0.937,1.774,1.193,0.493,0.884,0.845,��,1.5,��
2017/12/29,11:50,0.896,1.491,0.936,1.769,1.192,0.494,0.883,0.848,���쓌,2.0,��
2017/12/29,12:00,0.894,1.491,0.937,1.774,1.194,0.493,0.882,0.845,�쓌,1.7,��
2017/12/29,12:10,0.896,1.490,0.939,1.771,1.193,0.493,0.883,0.847,�쓌,1.9,��
2017/12/29,12:20,0.896,1.492,0.938,1.772,1.194,0.494,0.885,0.845,�쓌,2.6,��
2017/12/29,12:30,0.895,1.492,0.937,1.773,1.195,0.494,0.882,0.845,�쓌,3.6,��
2017/12/29,12:40,0.896,1.490,0.939,1.771,1.195,0.493,0.884,0.847,��쓌,3.8,��
2017/12/29,12:50,0.897,1.492,0.939,1.773,1.195,0.492,0.884,0.846,��쓌,4.5,��
2017/12/29,13:00,0.897,1.489,0.938,1.774,1.195,0.492,0.883,0.847,��쓌,4.4,��
2017/12/29,13:10,0.899,1.490,0.939,1.770,1.195,0.493,0.882,0.846,��쓌,5.7,��
2017/12/29,13:20,0.895,1.493,0.940,1.774,1.194,0.494,0.881,0.846,��쓌,6.3,��
2017/12/29,13:30,0.898,1.492,0.941,1.774,1.193,0.493,0.884,0.845,��쓌,5.7,��
2017/12/29,13:40,0.898,1.494,0.940,1.775,1.197,0.496,0.884,0.848,��쓌,5.1,��
2017/12/29,13:50,0.897,1.490,0.939,1.775,1.196,0.495,0.885,0.847,��쓌,5.6,��
2017/12/29,14:00,0.899,1.493,0.939,1.776,1.198,0.495,0.884,0.847,��,4.7,��
2017/12/29,14:10,0.898,1.494,0.939,1.775,1.194,0.494,0.882,0.846,���쐼,6.0,��
2017/12/29,14:20,0.899,1.496,0.940,1.773,1.197,0.494,0.883,0.849,��,7.0,��
2017/12/29,14:30,0.898,1.493,0.939,1.773,1.196,0.495,0.886,0.846,��,7.7,��
2017/12/29,14:40,0.899,1.497,0.940,1.774,1.198,0.495,0.884,0.847,��,9.3,��
2017/12/29,14:50,0.900,1.494,0.940,1.773,1.198,0.495,0.884,0.847,��,7.7,��
2017/12/29,15:00,0.900,1.493,0.940,1.773,1.194,0.494,0.884,0.846,��,8.0,��
2017/12/29,15:10,0.900,1.495,0.941,1.771,1.197,0.497,0.885,0.845,��,6.9,��
2017/12/29,15:20,0.899,1.494,0.941,1.774,1.198,0.494,0.884,0.849,���쐼,6.7,��
2017/12/29,15:30,0.898,1.495,0.939,1.775,1.198,0.495,0.882,0.846,��,8.1,��
2017/12/29,15:40,0.899,1.498,0.941,1.772,1.196,0.494,0.883,0.847,���쐼,7.0,��
2017/12/29,15:50,0.898,1.495,0.941,1.775,1.198,0.495,0.885,0.847,��,5.5,��
2017/12/29,16:00,0.899,1.496,0.939,1.774,1.195,0.493,0.884,0.848,���쐼,5.6,��
2017/12/29,16:10,0.899,1.497,0.940,1.776,1.196,0.495,0.883,0.846,���쐼,6.4,��
2017/12/29,16:20,0.896,1.492,0.941,1.774,1.196,0.496,0.883,0.847,���쐼,7.0,��
2017/12/29,16:30,0.898,1.493,0.938,1.775,1.194,0.496,0.882,0.847,���쐼,5.3,��
2017/12/29,16:40,0.899,1.492,0.940,1.774,1.198,0.497,0.884,0.846,���쐼,3.7,��
2017/12/29,16:50,0.898,1.494,0.939,1.773,1.195,0.495,0.883,0.847,�쐼,3.5,��
2017/12/29,17:00,0.896,1.493,0.940,1.772,1.193,0.496,0.884,0.847,���쐼,3.3,��
2017/12/29,17:10,0.897,1.494,0.940,1.772,1.194,0.496,0.883,0.845,��쐼,2.9,��
2017/12/29,17:20,0.896,1.495,0.939,1.773,1.196,0.495,0.884,0.846,��,3.4,��
2017/12/29,17:30,0.897,1.494,0.939,1.771,1.194,0.495,0.881,0.847,��쐼,3.8,��
2017/12/29,17:40,0.898,1.494,0.940,1.771,1.194,0.496,0.882,0.846,��쐼,2.8,��
2017/12/29,17:50,0.895,1.495,0.941,1.772,1.194,0.494,0.880,0.845,�쐼,2.3,��
2017/12/29,18:00,0.895,1.491,0.938,1.773,1.196,0.495,0.882,0.846,���쐼,3.2,��
2017/12/29,18:10,0.896,1.490,0.937,1.774,1.197,0.493,0.880,0.846,��,4.3,��
2017/12/29,18:20,0.897,1.493,0.938,1.771,1.195,0.494,0.881,0.845,��,3.7,��
2017/12/29,18:30,0.896,1.493,0.940,1.771,1.195,0.495,0.882,0.845,��,3.3,��
2017/12/29,18:40,0.896,1.492,0.939,1.773,1.195,0.493,0.882,0.848,��,4.7,��
2017/12/29,18:50,0.896,1.491,0.945,1.773,1.195,0.494,0.880,0.845,��,7.1,��
2017/12/29,19:00,0.897,1.493,0.939,1.775,1.194,0.493,0.883,0.847,��,9.0,��
2017/12/29,19:10,0.895,1.496,0.939,1.775,1.194,0.495,0.881,0.847,��,7.2,��
2017/12/29,19:20,0.896,1.494,0.939,1.775,1.195,0.494,0.883,0.846,���k��,6.3,��
2017/12/29,19:30,0.898,1.495,0.938,1.771,1.195,0.494,0.881,0.847,���k��,5.6,��
2017/12/29,19:40,0.896,1.493,0.937,1.774,1.195,0.494,0.882,0.846,��,7.6,��
2017/12/29,19:50,0.895,1.492,0.940,1.775,1.195,0.494,0.881,0.846,���쐼,9.3,��
2017/12/29,20:00,0.898,1.494,0.937,1.775,1.197,0.494,0.883,0.844,��,8.3,��
2017/12/29,20:10,0.899,1.491,0.940,1.774,1.196,0.496,0.883,0.845,��,10.2,��
2017/12/29,20:20,0.897,1.494,0.938,1.774,1.194,0.495,0.882,0.848,��,13.0,��
2017/12/29,20:30,0.897,1.492,0.936,1.774,1.194,0.494,0.883,0.846,��,10.8,��
2017/12/29,20:40,0.896,1.492,0.938,1.774,1.193,0.494,0.883,0.847,��,11.0,��
2017/12/29,20:50,0.893,1.494,0.935,1.775,1.196,0.495,0.883,0.847,��,9.3,��
2017/12/29,21:00,0.896,1.493,0.936,1.775,1.194,0.492,0.881,0.846,��,10.7,��
2017/12/29,21:10,0.896,1.493,0.935,1.774,1.194,0.493,0.884,0.847,��,8.9,��
2017/12/29,21:20,0.895,1.493,0.936,1.774,1.195,0.493,0.881,0.847,��,6.7,��
2017/12/29,21:30,0.895,1.494,0.936,1.777,1.193,0.493,0.884,0.848,���k��,9.3,��
2017/12/29,21:40,0.894,1.495,0.937,1.774,1.194,0.492,0.882,0.845,���k��,9.4,��
2017/12/29,21:50,0.895,1.493,0.935,1.774,1.194,0.492,0.881,0.846,���k��,8.9,��
2017/12/29,22:00,0.895,1.494,0.938,1.775,1.194,0.493,0.882,0.848,���k��,9.5,��
2017/12/29,22:10,0.896,1.494,0.938,1.776,1.195,0.493,0.881,0.846,���k��,11.1,��
2017/12/29,22:20,0.893,1.494,0.937,1.771,1.195,0.494,0.881,0.844,���k��,9.8,��
2017/12/29,22:30,0.895,1.490,0.939,1.771,1.192,0.494,0.882,0.847,���k��,7.5,��
2017/12/29,22:40,0.896,1.492,0.935,1.774,1.194,0.493,0.882,0.847,���k��,5.6,��
2017/12/29,22:50,0.895,1.490,0.938,1.774,1.193,0.493,0.881,0.844,���k��,5.2,��
2017/12/29,23:00,0.894,1.491,0.938,1.769,1.195,0.494,0.883,0.845,�k��,6.0,��
2017/12/29,23:10,0.895,1.489,0.936,1.772,1.195,0.492,0.881,0.847,���k��,7.3,��
2017/12/29,23:20,0.896,1.494,0.936,1.776,1.192,0.493,0.883,0.845,��,10.3,��
2017/12/29,23:30,0.894,1.493,0.935,1.774,1.194,0.493,0.883,0.847,��,9.4,��
2017/12/29,23:40,0.894,1.494,0.937,1.774,1.196,0.493,0.882,0.847,��,7.2,��
2017/12/29,23:50,0.894,1.494,0.936,1.772,1.193,0.492,0.882,0.845,��,5.6,��
